sat.trackr.live / text

‹ back to catalog

STARLINK-35339

NORAD 66028 · 2025-232Z

PAYLOAD ACTIVE UNKNOWN

§ Identity

Operator
Country
US
Launch date
2025-10-16
Launch site
AFETR
Launch vehicle
Mass (kg)
RCS (m²)

Purposes: comms

External: N2YO · Heavens-Above · Gunter

§ Orbital elements

Epoch: 2026-05-25T04:12:01.137024Z

Period
94.10 min
Inclination
53.1579°
Eccentricity
0.0001364
Mean motion
15.30213763 rev/d
Perigee alt
474.2 km
Apogee alt
476.1 km
Semi-major
6,853.3 km
B*
8.1916e-4
RAAN
108.7840°
Arg perigee
90.0602°
Mean anomaly
270.0555°
Rev number
3,514

§ Raw data

STARLINK-353391 66028U 25232Z   26145.17501316  .00023991  00000+0  81916-3 0  99992 66028  53.1579 108.7840 0001364  90.0602 270.0555 15.30213763 35141

JSON: /api/v1/satellites/66028 · /tle

For live sub-satellite position, see the globe view (requires WebGL).

§ Visibility from observer

Set your observer location to see the next 7 days of passes ≥ 10°. The values pass through the URL so the page stays shareable.

No JS? Fill the form by hand. The geolocation button needs JavaScript.